This is the latest recevied weather packets stored in our database for station/object G4KVI. If no packets are shown the sender has not sent any weather packets the latest 10 day(s).
| Time | Temp. | Humidity | Pressure | Rain* | Wind** | Luminosity | Snow |
|---|---|---|---|---|---|---|---|
| 1787448603 | 11.67° C | 81% | 1027.7 hPa | 0 mm | - | 0 W/m² | - |
| 1787448303 | 11.67° C | 81% | 1027.8 hPa | 0 mm | - | 0 W/m² | - |
| 1787448003 | 12.22° C | 80% | 1028 hPa | 0 mm | - | 0 W/m² | - |
| 1787447703 | 12.22° C | 79% | 1027.6 hPa | 0 mm | - | 0 W/m² | - |
| 1787447403 | 12.22° C | 79% | 1027.8 hPa | 0 mm | - | 0 W/m² | - |
| 1787447103 | 12.78° C | 78% | 1027.5 hPa | 0 mm | - | 0 W/m² | - |
| 1787446803 | 12.78° C | 78% | 1027.5 hPa | 0 mm | - | 0 W/m² | - |
| 1787446503 | 12.78° C | 78% | 1027.5 hPa | 0 mm | - | 0 W/m² | - |
| 1787446203 | 12.78° C | 77% | 1027.5 hPa | 0 mm | - | 0 W/m² | - |
| 1787445903 | 13.33° C | 76% | 1027.4 hPa | 0 mm | - | 0 W/m² | - |
| 1787445603 | 13.33° C | 76% | 1027.2 hPa | 0 mm | - | 0 W/m² | - |
| 1787445303 | 13.33° C | 76% | 1027.5 hPa | 0 mm | - | 0 W/m² | - |
| 1787445003 | 13.33° C | 76% | 1027.5 hPa | 0 mm | - | 0 W/m² | - |
| 1787444703 | 13.33° C | 77% | 1027.6 hPa | 0 mm | - | 0 W/m² | - |
| 1787444403 | 12.78° C | 78% | 1027.5 hPa | 0 mm | - | 0 W/m² | - |
| 1787444103 | 12.78° C | 79% | 1027.4 hPa | 0 mm | - | 0 W/m² | - |
| 1787443803 | 12.78° C | 80% | 1027.4 hPa | 0 mm | - | 0 W/m² | - |
| 1787443503 | 12.78° C | 80% | 1027.4 hPa | 0 mm | - | 0 W/m² | - |
| 1787443203 | 12.78° C | 81% | 1027.3 hPa | 0 mm | - | 0 W/m² | - |
| 1787442903 | 12.78° C | 83% | 1027.3 hPa | 0 mm | - | 0 W/m² | - |
| 1787442603 | 12.22° C | 85% | 1027.2 hPa | 0 mm | - | 0 W/m² | - |
| 1787442303 | 12.22° C | 86% | 1026.9 hPa | 0 mm | - | 0 W/m² | - |
| 1787442003 | 11.67° C | 88% | 1027.3 hPa | 0 mm | - | 0 W/m² | - |
| 1787441703 | 11.11° C | 87% | 1027.1 hPa | 0 mm | - | 0 W/m² | - |
| 1787441403 | 11.11° C | 88% | 1027.3 hPa | 0 mm | - | 0 W/m² | - |
* Rain latest hour (hover to see other rain measurements)
** Current wind speed in m/s (hover to see current wind gust speed)